Time,TemperatureF,DewpointF,PressureIn,WindDirection,WindDirectionDegrees,WindSpeedMPH,WindSpeedGustMPH,Humidity,HourlyPrecipIn,Conditions,Clouds,dailyrainin,SoftwareType,DateUTC
2014-04-20 00:01:00,52.0,39.0,30.10,South,175,8.0,11.0,61,0.00,,,0.00,,2014-04-20 07:01:00,
2014-04-20 00:11:00,52.0,39.0,30.10,South,175,8.0,11.0,61,0.00,,,0.00,,2014-04-20 07:11:00,
2014-04-20 00:22:00,52.0,39.0,30.10,South,179,4.0,11.0,61,0.00,,,0.00,,2014-04-20 07:22:00,
2014-04-20 00:32:00,52.0,39.0,30.10,South,179,4.0,11.0,61,0.00,,,0.00,,2014-04-20 07:32:00,
2014-04-20 00:52:00,52.0,34.0,30.10,South,190,4.0,10.0,50,0.00,,,0.00,,2014-04-20 07:52:00,
2014-04-20 01:02:00,52.0,34.0,30.10,South,190,4.0,10.0,50,0.00,,,0.00,,2014-04-20 08:02:00,
2014-04-20 01:12:00,52.0,34.0,30.10,South,190,4.0,10.0,50,0.00,,,0.00,,2014-04-20 08:12:00,
2014-04-20 01:21:00,52.0,35.0,30.09,South,184,0.0,9.0,53,0.00,,,0.00,,2014-04-20 08:21:00,
2014-04-20 01:32:00,52.0,35.0,30.09,South,184,0.0,9.0,53,0.00,,,0.00,,2014-04-20 08:32:00,
2014-04-20 01:43:00,52.0,35.0,30.09,South,184,0.0,9.0,53,0.00,,,0.00,,2014-04-20 08:43:00,
2014-04-20 01:52:00,54.0,38.0,30.09,South,184,1.0,6.0,54,0.00,,,0.00,,2014-04-20 08:52:00,
2014-04-20 02:01:00,54.0,38.0,30.09,South,184,1.0,6.0,54,0.00,,,0.00,,2014-04-20 09:01:00,
2014-04-20 02:11:00,54.0,38.0,30.09,South,184,1.0,6.0,54,0.00,,,0.00,,2014-04-20 09:11:00,
2014-04-20 02:22:00,55.0,33.0,30.10,South,182,2.0,5.0,44,0.00,,,0.00,,2014-04-20 09:22:00,
2014-04-20 02:33:00,55.0,33.0,30.10,South,182,2.0,5.0,44,0.00,,,0.00,,2014-04-20 09:33:00,
2014-04-20 02:43:00,55.0,33.0,30.10,South,182,2.0,5.0,44,0.00,,,0.00,,2014-04-20 09:43:00,
2014-04-20 02:54:00,55.0,39.0,30.09,South,182,0.0,4.0,54,0.00,,,0.00,,2014-04-20 09:54:00,
2014-04-20 03:03:00,55.0,39.0,30.09,South,182,0.0,4.0,54,0.00,,,0.00,,2014-04-20 10:03:00,
2014-04-20 03:13:00,55.0,39.0,30.09,South,182,0.0,4.0,54,0.00,,,0.00,,2014-04-20 10:13:00,
2014-04-20 03:23:00,54.0,39.0,30.09,North,355,6.0,6.0,56,0.00,,,0.00,,2014-04-20 10:23:00,
2014-04-20 03:33:00,54.0,39.0,30.09,North,355,6.0,6.0,56,0.00,,,0.00,,2014-04-20 10:33:00,
2014-04-20 03:43:00,54.0,39.0,30.09,North,355,6.0,6.0,56,0.00,,,0.00,,2014-04-20 10:43:00,
2014-04-20 03:53:00,53.0,37.0,30.09,North,360,11.0,12.0,54,0.00,,,0.00,,2014-04-20 10:53:00,
2014-04-20 04:02:00,53.0,37.0,30.09,North,360,11.0,12.0,54,0.00,,,0.00,,2014-04-20 11:02:00,
2014-04-20 04:12:00,53.0,37.0,30.09,North,360,11.0,12.0,54,0.00,,,0.00,,2014-04-20 11:12:00,
2014-04-20 04:22:00,53.0,38.0,30.09,North,360,10.0,13.0,57,0.00,,,0.00,,2014-04-20 11:22:00,
2014-04-20 04:34:00,53.0,38.0,30.09,North,360,10.0,13.0,57,0.00,,,0.00,,2014-04-20 11:34:00,
2014-04-20 04:43:00,53.0,38.0,30.09,North,360,10.0,13.0,57,0.00,,,0.00,,2014-04-20 11:43:00,
2014-04-20 04:52:00,52.0,39.0,30.08,North,5,10.0,16.0,60,0.00,,,0.00,,2014-04-20 11:52:00,
2014-04-20 05:01:00,52.0,39.0,30.08,North,5,10.0,16.0,60,0.00,,,0.00,,2014-04-20 12:01:00,
2014-04-20 05:12:00,52.0,39.0,30.08,North,5,10.0,16.0,60,0.00,,,0.00,,2014-04-20 12:12:00,
2014-04-20 05:22:00,51.0,38.0,30.07,North,360,10.0,12.0,60,0.00,,,0.00,,2014-04-20 12:22:00,
2014-04-20 05:32:00,51.0,38.0,30.07,North,360,10.0,12.0,60,0.00,,,0.00,,2014-04-20 12:32:00,
2014-04-20 05:42:00,51.0,38.0,30.07,North,360,10.0,12.0,60,0.00,,,0.00,,2014-04-20 12:42:00,
2014-04-20 05:52:00,52.0,37.0,30.09,North,360,7.0,12.0,57,0.00,,,0.00,,2014-04-20 12:52:00,
2014-04-20 06:12:00,52.0,37.0,30.09,North,360,7.0,12.0,57,0.00,,,0.00,,2014-04-20 13:12:00,
2014-04-20 06:22:00,53.0,36.0,30.07,North,360,5.0,10.0,53,0.00,,,0.00,,2014-04-20 13:22:00,
2014-04-20 06:32:00,53.0,36.0,30.07,North,360,5.0,10.0,53,0.00,,,0.00,,2014-04-20 13:32:00,
2014-04-20 06:42:00,53.0,36.0,30.07,North,360,5.0,10.0,53,0.00,,,0.00,,2014-04-20 13:42:00,
2014-04-20 06:52:00,54.0,36.0,30.10,North,360,0.0,6.0,50,0.00,,,0.00,,2014-04-20 13:52:00,
2014-04-20 07:02:00,54.0,36.0,30.10,North,360,0.0,6.0,50,0.00,,,0.00,,2014-04-20 14:02:00,
2014-04-20 07:11:00,54.0,36.0,30.10,North,360,0.0,6.0,50,0.00,,,0.00,,2014-04-20 14:11:00,
2014-04-20 08:54:00,60.0,42.0,30.12,South,176,2.0,6.0,51,0.00,,,0.00,,2014-04-20 15:54:00,
2014-04-20 09:04:00,60.0,42.0,30.12,South,176,2.0,6.0,51,0.00,,,0.00,,2014-04-20 16:04:00,
2014-04-20 09:13:00,60.0,42.0,30.12,South,176,2.0,6.0,51,0.00,,,0.00,,2014-04-20 16:13:00,
2014-04-20 09:23:00,61.0,43.0,30.11,South,178,1.0,11.0,52,0.00,,,0.00,,2014-04-20 16:23:00,
2014-04-20 09:33:00,61.0,43.0,30.11,South,178,1.0,11.0,52,0.00,,,0.00,,2014-04-20 16:33:00,
2014-04-20 09:43:00,61.0,43.0,30.11,South,178,1.0,11.0,52,0.00,,,0.00,,2014-04-20 16:43:00,
2014-04-20 09:53:00,62.0,43.0,30.13,South,177,5.0,10.0,50,0.00,,,0.00,,2014-04-20 16:53:00,
2014-04-20 10:02:00,62.0,43.0,30.13,South,177,5.0,10.0,50,0.00,,,0.00,,2014-04-20 17:02:00,
2014-04-20 10:22:00,63.0,47.0,30.14,South,172,7.0,10.0,55,0.00,,,0.00,,2014-04-20 17:22:00,
2014-04-20 10:33:00,63.0,47.0,30.14,South,172,7.0,10.0,55,0.00,,,0.00,,2014-04-20 17:33:00,
2014-04-20 10:43:00,63.0,47.0,30.14,South,172,7.0,10.0,55,0.00,,,0.00,,2014-04-20 17:43:00,
2014-04-20 10:53:00,63.0,46.0,30.14,South,188,4.0,11.0,53,0.00,,,0.00,,2014-04-20 17:53:00,
2014-04-20 11:01:00,63.0,46.0,30.14,South,188,4.0,11.0,53,0.00,,,0.00,,2014-04-20 18:01:00,
2014-04-20 11:12:00,63.0,46.0,30.14,South,188,4.0,11.0,53,0.00,,,0.00,,2014-04-20 18:12:00,
2014-04-20 11:22:00,63.0,46.0,30.14,SSW,198,4.0,11.0,54,0.00,,,0.00,,2014-04-20 18:22:00,
2014-04-20 11:32:00,63.0,46.0,30.14,SSW,198,4.0,11.0,54,0.00,,,0.00,,2014-04-20 18:32:00,
2014-04-20 11:52:00,63.0,48.0,30.15,South,177,3.0,12.0,59,0.00,,,0.00,,2014-04-20 18:52:00,
2014-04-20 12:01:00,63.0,48.0,30.15,South,177,3.0,12.0,59,0.00,,,0.00,,2014-04-20 19:01:00,
2014-04-20 12:12:00,63.0,48.0,30.15,South,177,3.0,12.0,59,0.00,,,0.00,,2014-04-20 19:12:00,
2014-04-20 12:22:00,64.0,48.0,30.15,South,191,9.0,12.0,56,0.00,,,0.00,,2014-04-20 19:22:00,
2014-04-20 12:32:00,64.0,48.0,30.15,South,191,9.0,12.0,56,0.00,,,0.00,,2014-04-20 19:32:00,
2014-04-20 12:42:00,64.0,48.0,30.15,South,191,9.0,12.0,56,0.00,,,0.00,,2014-04-20 19:42:00,
2014-04-20 12:52:00,65.0,47.0,30.15,South,184,7.0,13.0,52,0.00,,,0.00,,2014-04-20 19:52:00,
2014-04-20 13:02:00,65.0,47.0,30.15,South,184,7.0,13.0,52,0.00,,,0.00,,2014-04-20 20:02:00,
2014-04-20 13:12:00,65.0,47.0,30.15,South,184,7.0,13.0,52,0.00,,,0.00,,2014-04-20 20:12:00,
2014-04-20 13:22:00,66.0,46.0,30.14,South,189,7.0,13.0,48,0.00,,,0.00,,2014-04-20 20:22:00,
2014-04-20 13:32:00,66.0,46.0,30.14,South,189,7.0,13.0,48,0.00,,,0.00,,2014-04-20 20:32:00,
2014-04-20 13:42:00,66.0,46.0,30.14,South,189,7.0,13.0,48,0.00,,,0.00,,2014-04-20 20:42:00,
2014-04-20 13:52:00,66.0,46.0,30.14,SSW,201,9.0,13.0,49,0.00,,,0.00,,2014-04-20 20:52:00,
2014-04-20 14:02:00,66.0,46.0,30.14,SSW,201,9.0,13.0,49,0.00,,,0.00,,2014-04-20 21:02:00,
2014-04-20 14:12:00,66.0,46.0,30.14,SSW,201,9.0,13.0,49,0.00,,,0.00,,2014-04-20 21:12:00,
2014-04-20 14:21:00,66.0,43.0,30.14,SSW,196,2.0,15.0,43,0.00,,,0.00,,2014-04-20 21:21:00,
2014-04-20 14:33:00,66.0,43.0,30.14,SSW,196,2.0,15.0,43,0.00,,,0.00,,2014-04-20 21:33:00,
2014-04-20 14:43:00,66.0,43.0,30.14,SSW,196,2.0,15.0,43,0.00,,,0.00,,2014-04-20 21:43:00,
2014-04-20 15:13:00,66.0,46.0,30.13,SSW,194,9.0,16.0,48,0.00,,,0.00,,2014-04-20 22:13:00,
2014-04-20 15:23:00,66.0,44.0,30.12,South,178,7.0,17.0,45,0.00,,,0.00,,2014-04-20 22:23:00,
2014-04-20 15:32:00,66.0,44.0,30.12,South,178,7.0,17.0,45,0.00,,,0.00,,2014-04-20 22:32:00,